Regional Weather Roundup
Issued by NWS Columbia, SC

Home | Current Version | Previous Version | Text Only | Print | Product List | Glossary On
Versions: 1 2 3 4 5 6 7 8 9 10 11 12 13 14 15 16 17 18 19 20 21 22 23 24 25 26 27
000
ASUS42 KCAE 290410
RWRCAE
REGIONAL WEATHER ROUNDUP
NATIONAL WEATHER SERVICE COLUMBIA SC
1200 AM EDT THU SEP 29 2016

NOTE: "FAIR" INDICATES FEW OR NO CLOUDS BELOW 12,000 FEET WITH NO
SIGNIFICANT WEATHER AND/OR OBSTRUCTIONS TO VISIBILITY.

NOT ALL STATIONS ARE QUALITY CONTROLLED BY THE NATIONAL
WEATHER SERVICE. USE DATA WITH CAUTION...ESPECIALLY
DEWPOINT OBSERVATIONS.

SCZ001>056-GAZ040-063>065-077-290500-
...UPSTATE SOUTH CAROLINA...

CITY           SKY/WX    TMP DP  RH WIND       PRES   REMARKS
ANDERSON       CLEAR     66  58  75 CALM      29.92S
LIBERTY        CLEAR     56  54  91 CALM      29.92S
SPARTANBURG    CLEAR     64  52  63 CALM      29.91S
CLEMSON        CLEAR     69  51  52 CALM      29.93F
GREENVILLE     CLEAR     69  51  52 CALM      29.93F
GREENWOOD      PTCLDY    67  61  81 SE3       29.93S
GREER          CLEAR     68  50  52 SW3       29.91F
ROCK HILL      CLOUDY    70  66  87 S5        29.93S
LAURENS        CLEAR     70  59  68 W3        29.91S


...CENTRAL SOUTH CAROLINA...

CITY           SKY/WX    TMP DP  RH WIND       PRES   REMARKS
COLUMBIA APT   MOCLDY    78  71  79 SW5       29.92F
COLUMBIA OWENS CLOUDY    79  70  74 S5        29.93F
MCENTIRE ANGB  PTCLDY    76  71  85 VRB5      29.93R
ORANGEBURG     CLEAR     76  72  87 S9        29.94R
SUMTER SHAW    PTCLDY    76  71  83 S7        29.91S
AIKEN          FAIR      73  68  83 S5        29.96S
MANNING        FAIR      77  72  83 S6        29.95S
LANCASTER      PTCLDY    70  70 100 S3        29.93S
WINNSBORO      MOCLDY    72  72 100 SE7       29.94R


...EASTERN AND COASTAL SOUTH CAROLINA...

CITY           SKY/WX    TMP DP  RH WIND       PRES   REMARKS
MYRTLE BEACH   CLOUDY    81  68  65 S13         N/A
N MYRTLE BCH   PTCLDY    80  72  76 S12       29.97F
CONWAY         FAIR      73  72  94 CALM      29.97S
MARION         CLOUDY    75  72  88 S8        29.95F
HARTSVILLE     FAIR      72  72 100 S6        29.93F
FLORENCE       MOCLDY    77  74  90 S12       29.94F
DARLINGTON     PTCLDY    75  73  93 SE10      29.94R
CHARLESTON APT PTCLDY    78  74  87 S8        29.96R
MOUNT PLEASANT FAIR      81  75  83 S7        29.97S
WALTERBORO     CLEAR     77  77 100 S6        29.96S
BEAUFORT       CLEAR     80  75  84 S5        29.95F


...EASTERN GEORGIA...

CITY           SKY/WX    TMP DP  RH WIND       PRES   REMARKS
AUGUSTA BUSH F CLOUDY    77  69  76 S6        29.91R
AUGUSTA DANIEL CLEAR     79  67  66 SW3       29.92S
THOMSON        PTCLDY    73  69  88 CALM      29.96S
WASHINGTON     FAIR      72  64  78 CALM      29.92S
CLAXTON        FAIR      76  74  94 CALM      29.95S
STATESBORO     CLEAR     75  73  93 S5        29.95R
SAVANNAH       MOCLDY    78  72  81 SW8       29.96S


...SOUTHERN NORTH CAROLINA...

CITY           SKY/WX    TMP DP  RH WIND       PRES   REMARKS
CHARLOTTE      CLOUDY    71  66  84 S8        29.93R
MONROE         CLOUDY    69  66  90 SW6       29.91F
WADESBORO      LGT RAIN  67  64  90 CALM      29.92F
RUTHERFORDTON  CLEAR     63  61  92 NW3       29.93S
ASHEVILLE      CLEAR     57  53  86 CALM      29.99S

$$




USA.gov is the U.S. government's official web portal to all federal, state and local government web resources and services.